Find Starlink 31424

NORAD ID: 59247 Int'l Des: 2024-049 Owner: SPXS Country: US Constellation: starlink operational
LEOCIRCULAR

Live-Position

3D-Globus wird geladen...

Über Starlink 31424

Beschreibung wird geladen...

Nächste Überflüge

Passes for default location (London). Set your location on the main map for personalized predictions.

Höhenverlauf

Loading altitude history...

Zweizeiliger Elementsatz

1 59247U 24049S 26132.29398822 .00000174 00000-0 15852-4 0 9990
2 59247 43.0026 140.8537 0001424 260.2313 99.8377 15.27574502122163
Epoch: 12. Mai 2026 • Age: 20 hours

Aktueller Status

Höhe 483.4 km
Geschwindigkeit 7.63 km/s
Subsatellitenpunkt -4.73°S, 49.9°E
Startdatum 16. März 2024
Alter 2.1 years
Typ internet

Technische Details

Klassifizierung Payload
Masse 730.00 kg
Trockenmasse 700.00 kg
Gesamtmasse 730.00 kg
Länge 0.30 m
Durchmesser 4.10 m
Spannweite 29.00 m
Form Box + pan
Hersteller SPXS
Bus-Typ Starlink V2M
Phasenstatus In Orbit
Besitzer/Staat SPXS/US

Most Searched